International Virtual Aviation Organisation

Russian Federation and Kazakhstan MCD

 

Карточка аэропорта UNBB

Внимание!
Информация на этой странице в стадии наполнения.
Если вы не увидели какой-то информации, или заметили неточность - пожалуйста сообщите нам!
Спасибо!
Команда RU-STAFF
Название аэропортаМихайловка
Название аэропорта (англ.)Mikhaylovka
Превышение837 ft. (255.1 m.)
Координаты53°21.798', 83°32.382'
Высота перехода700m
Эшелон переходаFL050
Коды ответчика5301-5317
Зона ОрВДНовосибирск РПИ (UNNT)
Данные METARUNBB 131100Z 21007MPS 5000 -SHSN SCT007 BKN023CB M03/M04 Q1013 R24/490532 NOSIG RMK QFE738
Проноз погоды (TAF)UNBB 130942Z 1309/1409 22006G12MPS 2000 SHSN SCT005 BKN011CB TEMPO 1309/1403 0600 +SHSNRA BKN002 OVC011CB FM140300 32005G10MPS 3100 -SHSN BKN015CB TEMPO 1403/1409 0800 +SHSN BKN005 BKN011CB
NOTAMshow/hide NOTAM
AWOS   TABLE

Информация о ВПП

ВПП Длина ВПП (м.) Покрытие Курс ВПП Частота ILS
062853Асфальтобетон59 
242853Асфальтобетон239108.7

Диспетчерские позиции




Спутниковое изображение